"Pseudo-MPEC" for P10UHS1

Created 2019 Dec 7 14:07:15 UT using Find_Orb

Click here for an explanation of pseudo-MPECs

 
 Astrometry: 
     P10UHS1  C2019 11 266s/Ow`kF%pD#.WAstrometryLr)[*xG*tEAsjq$taw]6n[w9[V/%F51
     P10UHS1  C2019 11 26Yq6_is@MrAWFgS?1Jw+1Ohw#y6^Uy=hpTM9'redacted;GgyixyVF51
     P10UHS1  C2019 11 26QsgUpLAynclickCvrBf0QeN?[\luc9b=here\:8F5Y!`+B_Te6LaF51
     P10UHS1  C2019 11 2668hW##xfordq:[SUwl!gKV'1y@eVkexplanation3'UFPXSWJqyXF51

Station data:
(F51) Pan-STARRS 1, Haleakala  (N20.707235 W156.255910)  US/Hawaii.
   Observers N. Primak, A. Schultz, S. Watters, J. Thiel, T. Goggia. Measurer
   PS1 Science Consortium. 1.8-m Ritchey-Chrétien + CCD.

Orbital elements:  P10UHS1
   Perihelion 2019 Dec 5.021731 +/- 46 TT =  0:31:17 (JD 2458822.521731)
Epoch 2019 Nov 26.0 TT = JDT 2458813.5   Earth MOID: 0.4397   Ju: 0.5425
M 358.40528553 +/- 18               Ma: 0.0693                AutoNEOCP
n   0.17676369 +/- 0.216            Peri.    8.61221 +/- 59
a   3.14442081 +/- 2.55             Node    62.20494 +/- 26
e   0.5472649 +/- 0.253             Incl.   21.34162 +/- 9
P   5.58                   H 22.5   G  0.15   U 11.7  SR
q 1.42358951 +/- 0.29    Q 4.86525211 +/- 47.9
From 4 observations 2019 Nov. 26 (52.7 min); mean residual 0".30
Residuals in arcseconds: 
191126 F51  .24-  .34-    191126 F51  .24+  .37+    
191126 F51  .23+  .33+    191126 F51  .24-  .36-    

Ephemerides (geocentric):
Date (UTC) HH   RA              Dec         delta   r     elong  mag " sig PA
---- -- -- --  -------------   -----------  ------ ------ -----  --- ---- ---
2019 12 07 14  04 03 43.273   +33 04 08.48  .44972 1.4239 164.7 22.2  45d 167
2019 12 07 15  04 03 40.561   +33 06 00.55  .44981 1.4239 164.6 22.2  45d 167
2019 12 07 16  04 03 37.851   +33 07 52.55  .44990 1.4239 164.6 22.2  45d 167
2019 12 07 17  04 03 35.142   +33 09 44.46  .44999 1.4239 164.5 22.2  45d 167
2019 12 07 18  04 03 32.436   +33 11 36.30  .45009 1.4239 164.5 22.2  45d 167
2019 12 07 19  04 03 29.731   +33 13 28.06  .45018 1.4239 164.4 22.2  45d 167
2019 12 07 20  04 03 27.029   +33 15 19.74  .45028 1.4239 164.4 22.2  45d 167
2019 12 07 21  04 03 24.328   +33 17 11.35  .45037 1.4239 164.3 22.2  45d 166
2019 12 07 22  04 03 21.630   +33 19 02.87  .45047 1.4239 164.3 22.2  45d 166
2019 12 07 23  04 03 18.933   +33 20 54.32  .45056 1.4239 164.2 22.2  45d 166
2019 12 08 00  04 03 16.238   +33 22 45.69  .45066 1.4239 164.1 22.2  45d 166
2019 12 08 01  04 03 13.546   +33 24 36.98  .45075 1.4240 164.1 22.2  45d 166
2019 12 08 02  04 03 10.855   +33 26 28.19  .45085 1.4240 164.0 22.2  45d 166
2019 12 08 03  04 03 08.167   +33 28 19.32  .45095 1.4240 164.0 22.2  45d 166
2019 12 08 04  04 03 05.480   +33 30 10.38  .45105 1.4240 163.9 22.2  45d 166
2019 12 08 05  04 03 02.796   +33 32 01.35  .45114 1.4240 163.9 22.2  45d 166
2019 12 08 06  04 03 00.114   +33 33 52.25  .45124 1.4240 163.8 22.2  45d 166
2019 12 08 07  04 02 57.434   +33 35 43.06  .45134 1.4240 163.8 22.2  45d 165
2019 12 08 08  04 02 54.756   +33 37 33.79  .45144 1.4240 163.7 22.2  45d 165
2019 12 08 09  04 02 52.080   +33 39 24.45  .45154 1.4240 163.7 22.2  45d 165
2019 12 08 10  04 02 49.406   +33 41 15.02  .45164 1.4240 163.6 22.2  45d 165
2019 12 08 11  04 02 46.735   +33 43 05.51  .45174 1.4241 163.6 22.2  45d 165
2019 12 08 12  04 02 44.065   +33 44 55.93  .45184 1.4241 163.5 22.2  45d 165
2019 12 08 13  04 02 41.398   +33 46 46.26  .45194 1.4241 163.5 22.2  45d 165
2019 12 08 14  04 02 38.733   +33 48 36.51  .45204 1.4241 163.4 22.2  45d 165
2019 12 08 15  04 02 36.071   +33 50 26.67  .45214 1.4241 163.4 22.2  45d 165
2019 12 08 16  04 02 33.410   +33 52 16.76  .45225 1.4241 163.3 22.2  45d 165
2019 12 08 17  04 02 30.752   +33 54 06.76  .45235 1.4241 163.2 22.2  45d 165
2019 12 08 18  04 02 28.096   +33 55 56.69  .45245 1.4241 163.2 22.2  45d 164
2019 12 08 19  04 02 25.443   +33 57 46.53  .45256 1.4242 163.1 22.2  45d 164
2019 12 08 20  04 02 22.792   +33 59 36.28  .45266 1.4242 163.1 22.2  46d 164
2019 12 08 21  04 02 20.143   +34 01 25.96  .45276 1.4242 163.0 22.2  46d 164
2019 12 08 22  04 02 17.496   +34 03 15.55  .45287 1.4242 163.0 22.2  46d 164
2019 12 08 23  04 02 14.852   +34 05 05.06  .45297 1.4242 162.9 22.2  46d 164
2019 12 09 00  04 02 12.210   +34 06 54.49  .45308 1.4242 162.9 22.2  46d 164
2019 12 09 01  04 02 09.571   +34 08 43.83  .45319 1.4242 162.8 22.2  46d 164
2019 12 09 02  04 02 06.934   +34 10 33.09  .45329 1.4242 162.8 22.2  46d 164
2019 12 09 03  04 02 04.299   +34 12 22.27  .45340 1.4243 162.7 22.2  46d 164
2019 12 09 04  04 02 01.667   +34 14 11.36  .45351 1.4243 162.7 22.2  46d 164
2019 12 09 05  04 01 59.038   +34 16 00.37  .45361 1.4243 162.6 22.3  46d 164
2019 12 09 06  04 01 56.410   +34 17 49.29  .45372 1.4243 162.6 22.3  46d 164
2019 12 09 07  04 01 53.786   +34 19 38.13  .45383 1.4243 162.5 22.3  46d 164
2019 12 09 08  04 01 51.163   +34 21 26.89  .45394 1.4243 162.5 22.3  46d 164
2019 12 09 09  04 01 48.544   +34 23 15.56  .45405 1.4243 162.4 22.3  46d 164
2019 12 09 10  04 01 45.926   +34 25 04.15  .45416 1.4244 162.4 22.3  46d 163
2019 12 09 11  04 01 43.312   +34 26 52.65  .45427 1.4244 162.3 22.3  46d 163
2019 12 09 12  04 01 40.700   +34 28 41.06  .45438 1.4244 162.2 22.3  46d 163
2019 12 09 13  04 01 38.090   +34 30 29.39  .45449 1.4244 162.2 22.3  46d 163